#timestamp,LO_Frequency,Hit,StdDev 
1536609615.9,286047004.1,N
1536609635.7,286047004.1,N
1536609655.6,286047003.9,N
1536609675.4,286047002.3,N
1536609695.2,286047000.2,N
1536609715.1,286047011.9,Y
1536609716.0,286046998.9,P
1536609735.8,286046997.3,N
1536609755.7,286046998.2,N
1536609775.5,286047000.6,N
1536609795.3,286047000.7,N
1536609815.2,286046997.0,N
1536609835.0,286046997.7,N
1536609835.9,286046997.7,N
1536609855.7,286046999.1,N
1536609875.6,286046998.8,N
1536609895.4,286046998.1,N
1536609915.3,286047001.0,N
1536609935.1,286046999.7,N
1536609936.0,286046999.7,N
1536609955.8,286047000.4,N
1536609975.7,286046999.0,N
1536609995.5,286046997.5,N
1536610015.3,286046999.2,N
1536610035.2,286046999.4,N
1536610055.0,286046997.3,N
1536610055.9,286046997.3,N
1536610075.8,286046995.3,Y
1536610095.6,286046997.1,P
1536610115.4,286046999.6,N
1536610135.3,286046999.1,N
1536610155.1,286046996.6,Y
1536610175.8,286046999.5,P
1536610195.7,286046996.9,P
1536610215.5,286046994.9,P
1536610235.4,286046995.8,N
1536610255.2,286046996.4,N
1536610275.0,286046993.8,Y
1536610275.9,286046993.8,P
1536610295.8,286046998.3,N
1536610315.6,286047000.7,N
1536610335.5,286047002.3,N
1536610355.3,286047002.8,N
1536610375.1,286047001.8,N
1536610395.9,286046999.8,N
1536610415.7,286047002.5,N
1536610435.5,286047002.6,N
1536610455.4,286047001.3,N
1536610475.2,286047003.0,N
1536610495.0,286047005.8,N
1536610496.0,286047005.8,N
1536610515.8,286047003.4,N
1536610535.6,286047005.0,N
1536610555.5,286047005.8,N
1536610575.3,286047001.7,N
1536610595.1,286047003.0,N
1536610615.9,286047005.0,N
1536610635.7,286047005.6,N
1536610655.5,286047004.1,N
1536610675.4,286047002.1,N
1536610695.2,286046999.7,N
1536610715.1,286047000.8,N
1536610716.0,286047000.8,N
1536610735.8,286046998.3,N
1536610755.6,286047000.7,N
1536610775.5,286047003.6,N
1536610795.3,286047005.7,N
1536610815.1,286047005.9,N
1536610835.9,286047005.2,N
1536610855.7,286047005.3,N
1536610875.6,286047003.3,N
1536610895.4,286046999.9,N
1536610915.2,286047001.7,N
1536610935.1,286047003.7,N
1536610936.0,286047003.7,N
1536610955.8,286047005.5,N
1536610975.6,286047004.9,N
1536610995.5,286047004.9,N
1536611015.3,286047006.6,Y
1536611035.2,286047003.4,P
1536611055.9,286047000.1,N
1536611075.7,286046998.8,N
1536611095.6,286046998.9,N
1536611115.4,286046996.8,N
1536611135.2,286046995.0,N
1536611155.1,286046996.5,N
1536611156.0,286046996.5,N
1536611175.8,286046995.5,N
1536611195.7,286046995.1,N
1536611215.5,286046997.2,N
1536611235.3,286046998.3,N
1536611255.2,286047000.8,N
1536611275.9,286046999.3,N
1536611295.7,286046999.5,N
1536611315.6,286047000.6,N
1536611335.4,286046997.2,N
1536611355.2,286046997.9,N
1536611375.1,286046995.3,N
1536611376.0,286046995.3,N
1536611395.8,286046995.8,N
1536611415.7,286046999.5,N
1536611435.5,286046996.8,N
1536611455.3,286046994.9,N
1536611475.2,286046995.9,N
1536611495.0,286046993.8,N
1536611495.9,286046993.8,N
1536611515.8,286046993.6,N
1536611535.6,286046994.6,N
1536611555.4,286046995.9,N
1536611575.3,286046993.5,N
1536611595.1,286046993.5,Y
1536611615.8,286046996.9,P
1536611635.7,286046999.3,P
1536611655.5,286046998.8,N
1536611675.4,286046998.3,N
1536611695.2,286047000.9,N
1536611715.0,286047002.6,N
1536611715.9,286047002.6,N
1536611735.8,286047001.9,N
1536611755.6,286047004.0,N
1536611775.4,286047004.3,N
1536611795.3,286046999.9,N
1536611815.1,286046998.1,N
1536611835.9,286046999.8,N
1536611855.7,286046999.9,N
1536611875.5,286047000.3,N
1536611895.4,286047004.2,N
1536611915.2,286047003.4,N
1536611935.0,286047003.3,N
1536611935.9,286047003.3,N
1536611955.8,286047005.5,N
1536611975.6,286047003.8,N
1536611995.4,286047003.5,N
1536612015.3,286047002.1,N
1536612035.1,286047002.1,N
1536612055.9,286047002.1,N
1536612075.7,286047000.1,N
1536612095.5,286047002.8,N
1536612115.4,286047001.6,N
1536612135.2,286047002.2,N
1536612155.0,286047004.1,N
1536612155.9,286047004.1,N
1536612175.8,286047001.3,N
1536612195.6,286047003.4,N
1536612215.5,286047003.1,N
1536612235.3,286047003.8,N
1536612255.1,286047001.7,N
1536612275.9,286047002.7,N
1536612295.7,286047002.6,N
1536612315.5,286046999.9,N
1536612335.4,286047002.6,N
1536612355.2,286047001.7,N
1536612375.0,286047003.2,N
1536612376.0,286047003.2,N
1536612395.8,286047005.6,Y
1536612415.6,286047002.0,P
1536612435.5,286047003.3,P
1536612455.3,286047005.5,P
1536612475.1,286047002.9,N
1536612495.9,286047004.4,Y
1536612515.7,286046999.3,P
1536612535.6,286046998.3,N
1536612555.4,286046996.5,N
1536612575.2,286046999.6,N
1536612595.1,286046998.9,N
1536612596.0,286046998.9,N
1536612615.8,286046999.2,N
1536612635.6,286046999.0,N
1536612655.5,286046997.5,N
1536612675.3,286046995.4,N
1536612695.1,286046997.9,N
1536612715.9,286046998.4,N
1536612735.7,286047001.5,N
1536612755.6,286047002.8,N
1536612775.4,286047004.1,N
1536612795.2,286047003.7,N
1536612815.1,286047002.2,N
1536612816.0,286047002.2,N
1536612835.8,286047004.4,N
1536612855.6,286047001.7,N
1536612875.5,286047000.4,N
1536612895.3,286047000.4,N
1536612915.2,286046998.7,N
1536612935.9,286046999.0,N
1536612955.7,286047002.7,N
1536612975.6,286047002.2,N
1536612995.4,286046999.8,N
1536613015.3,286046999.3,N
1536613035.1,286046995.5,N
1536613036.0,286046995.5,N
1536613055.8,286046997.8,N
1536613075.7,286046997.1,N
1536613095.5,286046997.2,N
1536613115.3,286046998.1,N
1536613135.2,286047000.6,N
1536613155.0,286047000.3,N
1536613155.9,286047000.3,N
1536613175.8,286047000.2,N
1536613195.6,286047002.4,N
